Location: Unspecified
(0.0000°N, 0.0000°E)
Time: 17:28:09
(UTC+00:00)

ATLAS 5 CENTAUR DEB - Pass Details

Date: 08 March 2026
Orbit: 8253 x 35273 km, 19.8° (Epoch: 17 April)

Event Time Altitude Azimuth Distance (km) Brightness Sun altitude
Rises 16:04:08 0° 269° (W) 14,841 ? 31.5°
Reaches altitude 10° 16:14:11 10° 264° (W) 14,806 ? 29.0°
Maximum altitude 20:38:02 64° 220° (SW) 34,368 ? -36.7°
Enters shadow 01:25:14 55° 271° (W) 27,937 ? -70.8°
Exits shadow 02:34:52 58° 291° (WNW) 20,729 ? -53.7°
Drops below altitude 10° 04:27:44 10° 71° (ENE) 12,191 ? -25.6°
Sets 04:36:06 0° 76° (ENE) 13,166 ? -23.6°
